Ops Hamburg — A8VS9 — position and weather

sailwx.info

Track history (hours):
 
Tides and Currents Weather Stations Pressure Air Temp Water Temp Dewpoint Dewpoint Depression Visibility Wind Speed Wind Dir Waves Ship Positions

Ops Hamburg

Last reported at 2014-Sep-16 21:23 UTC. Time now 2014-Sep-17 09:39 UTC.
Position N 35°43' W 000°38'.

Length 148 m; draft 8.8 m.

Type: Cargo ship. MMSI: 636092040.

Date/timePositionNaut miles runAvg speedWind from/ knotsBaromVisibWave heightAir tempDewpointWater temp
2014-Sep-16 21:23N 35°43' W 000°38'0 0.0
2014-Sep-16 20:29N 35°43' W 000°38'0 0.0
2014-Sep-16 18:30N 35°43' W 000°38'0 0.0
2014-Sep-16 17:06N 35°43' W 000°38'0 0.0
2014-Sep-16 16:30N 35°43' W 000°38'0 0.0
2014-Sep-16 15:06N 35°43' W 000°38'0 0.0
2014-Sep-16 12:12N 35°43' W 000°38'0 0.0
2014-Sep-16 11:24N 35°43' W 000°38'0 0.0
2014-Sep-16 09:13N 35°43' W 000°38'0 0.0
2014-Sep-16 07:12N 35°43' W 000°38'0 0.0
2014-Sep-16 06:24N 35°43' W 000°38'1 0.6
2014-Sep-16 04:16N 35°44' W 000°37'2 2.3
2014-Sep-16 03:26N 35°45' W 000°39'0 0.5
2014-Sep-16 02:31N 35°45' W 000°38'5911.1
2014-Sep-15 21:15N 35°59' W 001°49'1112.7
2014-Sep-15 20:22N 36°01' W 002°02'15712.8
2014-Sep-15 08:05N 35°58' W 005°16'713.3
2014-Sep-15 07:32N 35°58' W 005°26'9 0.2
2014-Sep-13 18:28N 35°52' W 005°34'0 0.0
2014-Sep-13 17:16N 35°52' W 005°34'9 1.1
2014-Sep-13 09:33N 35°59' W 005°27'9 8.9
2014-Sep-13 08:33N 35°60' W 005°16'  
2014-Sep-07 19:31N 35°52' W 000°44'9 8.5
2014-Sep-07 18:31N 35°46' W 000°37'  
Track history (hours):
 
Tides and Currents Weather Stations Pressure Air Temp Water Temp Dewpoint Dewpoint Depression Visibility Wind Speed Wind Dir Waves Ship Positions

Ops Hamburg

Last reported at 2014-Sep-16 21:23 UTC. Time now 2014-Sep-17 09:39 UTC.
Position N 35°43' W 000°38'.

Length 148 m; draft 8.8 m.

Type: Cargo ship. MMSI: 636092040.

Date/timePositionNaut miles runAvg speedWind from/ knotsBaromVisibWave heightAir tempDewpointWater temp
2014-Sep-16 21:23N 35°43' W 000°38'0 0.0
2014-Sep-16 20:29N 35°43' W 000°38'0 0.0
2014-Sep-16 18:30N 35°43' W 000°38'0 0.0
2014-Sep-16 17:06N 35°43' W 000°38'0 0.0
2014-Sep-16 16:30N 35°43' W 000°38'0 0.0
2014-Sep-16 15:06N 35°43' W 000°38'0 0.0
2014-Sep-16 12:12N 35°43' W 000°38'0 0.0
2014-Sep-16 11:24N 35°43' W 000°38'0 0.0
2014-Sep-16 09:13N 35°43' W 000°38'0 0.0
2014-Sep-16 07:12N 35°43' W 000°38'0 0.0
2014-Sep-16 06:24N 35°43' W 000°38'1 0.6
2014-Sep-16 04:16N 35°44' W 000°37'2 2.3
2014-Sep-16 03:26N 35°45' W 000°39'0 0.5
2014-Sep-16 02:31N 35°45' W 000°38'5911.1
2014-Sep-15 21:15N 35°59' W 001°49'1112.7
2014-Sep-15 20:22N 36°01' W 002°02'15712.8
2014-Sep-15 08:05N 35°58' W 005°16'713.3
2014-Sep-15 07:32N 35°58' W 005°26'9 0.2
2014-Sep-13 18:28N 35°52' W 005°34'0 0.0
2014-Sep-13 17:16N 35°52' W 005°34'9 1.1
2014-Sep-13 09:33N 35°59' W 005°27'9 8.9
2014-Sep-13 08:33N 35°60' W 005°16'  
2014-Sep-07 19:31N 35°52' W 000°44'9 8.5
2014-Sep-07 18:31N 35°46' W 000°37'  

Dump ship's entire track history